Wind_Speed
15 17 16 18 15 11 9 8 7 8 8 7 6 7 6 7 8 9 10 10 13 15 17 17 18 18 21 25 25 25 26 28 27 29 26 28 29 27 26 24 24 23 24
20 19 17 19 15 13 12 12 10 10 10 10 11 11 11 10 11 10 11 13 13 14 14 17 19 20 21 20 20 25 22 21 25 27 31 31 22 24 18 22 29 29 29
21 22 20 19 17 16 17 16 15 14 13 15 13 13 16 17 17 16 15 15 16 17 17 16 16 19 19 20 20 19 25 27 28 26 21 20 24 20 17 21 29 28 30
26 27 26 22 22 21 20 18 18 19 19 18 19 18 18 18 18 20 22 20 20 20 21 20 16 16 18 20 22 23 23 22 25 29 27 25 24 23 25 25 32 29 28
31 32 29 24 25 20 17 18 18 22 24 22 24 25 24 25 26 22 21 22 22 20 19 21 21 19 18 20 20 22 24 25 26 26 25 23 22 23 26 28 31 33 26
32 36 39 36 20 18 21 22 25 24 25 23 24 30 27 30 28 25 24 24 24 24 22 20 21 22 21 22 22 22 24 24 26 27 28 25 24 24 25 19 17 12 22
39 45 42 34 19 20 22 26 27 24 23 22 25 20 29 34 34 19 21 29 28 27 24 25 19 21 23 23 24 23 22 22 23 26 28 28 26 23 21 19 11 16 22
30 32 25 17 10 17 24 23 26 28 26 26 27 29 31 27 24 24 25 31 32 28 26 26 24 21 22 24 25 22 20 22 24 25 26 28 28 25 22 20 18 19 23
42 33 24 14 13 14 19 27 28 29 31 32 29 30 28 28 25 29 36 36 37 30 26 24 25 26 25 22 24 22 24 25 24 24 24 24 27 28 25 22 22 23 24
10 12 12 11 16 21 25 29 28 30 32 32 30 29 31 27 31 23 36 43 36 30 26 22 22 22 27 26 22 22 24 23 23 22 22 21 21 25 25 24 24 24 25
16 17 15 19 24 26 30 31 30 33 33 32 32 31 32 31 30 30 25 34 34 30 28 24 23 23 25 27 25 22 20 19 21 24 20 18 20 20 23 24 25 25 27
21 22 26 27 26 28 32 37 35 32 31 32 34 33 33 31 33 33 37 37 39 32 30 27 25 27 26 27 26 24 22 22 21 23 21 20 17 17 21 24 27 29 29
31 32 31 28 30 33 34 35 34 32 31 33 34 34 31 31 40 40 32 47 42 35 30 28 29 28 31 29 28 25 26 24 22 22 21 20 21 21 21 21 22 23 26
35 37 36 36 35 30 29 29 31 31 32 35 35 33 29 29 36 29 32 47 39 35 32 29 28 29 32 32 28 26 25 25 24 22 23 25 26 26 26 26 26 28 29
42 43 40 35 30 30 29 29 31 34 33 34 34 31 27 25 27 29 38 42 39 38 35 29 29 27 27 30 30 28 25 26 28 27 25 26 27 27 27 28 28 28 29
38 34 32 31 30 31 30 30 32 33 34 34 32 30 26 19 15 24 44 40 41 39 37 34 31 28 28 28 31 31 31 29 30 32 31 30 31 30 30 31 32 33 33
32 34 35 33 31 30 32 31 33 32 33 32 29 29 26 23 13 15 36 32 41 35 34 35 29 30 31 30 29 31 33 34 33 32 32 33 33 34 35 35 36 37 37
34 33 32 30 30 32 32 31 31 32 35 32 29 30 27 27 24 20 16 28 30 32 30 22 25 30 34 33 33 33 31 32 34 34 34 33 33 34 36 37 37 38 39
30 31 29 27 28 28 28 32 35 37 37 34 33 30 28 27 17 19 24 30 35 36 33 28 27 24 22 21 22 24 25 27 29 33 35 35 34 35 36 38 39 39 39
24 25 24 26 29 27 28 26 30 33 33 29 29 31 29 29 30 31 39 36 36 40 35 31 25 25 24 23 24 23 24 28 31 32 34 34 34 35 37 39 40 39 39
24 24 25 27 28 29 25 24 23 25 27 27 27 32 26 30 33 30 48 46 40 38 30 26 26 25 25 26 25 26 28 30 31 30 31 32 34 36 37 37 35 36 36
25 25 25 26 27 25 20 20 23 19 18 20 21 21 26 34 30 33 40 33 26 29 31 28 26 27 24 24 25 27 32 34 31 30 30 30 32 33 33 34 36 38 40
26 27 26 24 22 26 22 19 21 20 21 23 20 22 21 16 16 19 13 13 13 19 19 20 20 22 24 28 31 33 31 29 30 32 33 34 33 33 36 38 41 44 46
26 28 28 25 24 23 21 21 20 17 16 14 17 18 16 16 18 18 19 18 21 18 18 20 23 22 22 27 29 31 31 32 31 30 31 33 35 38 41 44 47 49 47
29 28 26 26 25 26 25 22 21 22 21 25 24 20 18 18 18 17 23 26 29 29 24 24 22 24 27 28 27 27 27 28 30 32 35 37 40 43 42 39 35 33 33
25 26 28 26 25 26 26 23 20 22 25 28 31 31 30 27 26 26 28 27 26 26 26 26 26 25 25 25 26 27 29 32 34 36 38 39 36 35 35 33 32 32 33
Wind_Direction
252 249 264 279 291 308 303 297 282 277 286 293 297 302 315 320 311 306 302 293 286 282 276 269 261 256 249 248 250 239 243 251 256 260 267 258 262 266 265 263 264 268 262
256 245 253 269 275 282 287 280 275 277 278 279 281 290 303 296 291 289 293 292 292 287 281 279 275 265 264 263 263 246 248 250 245 261 264 261 268 269 256 270 271 260 259
236 238 242 251 254 260 268 268 267 269 278 280 283 291 295 301 302 301 300 300 290 285 281 278 279 279 269 263 261 256 250 253 256 262 264 265 269 257 257 255 260 268 268
231 227 230 232 248 254 264 270 272 277 286 297 301 305 304 299 299 304 302 302 303 297 288 283 281 277 278 268 262 259 257 259 262 266 266 262 262 263 256 250 265 259 254
235 239 235 234 246 261 270 268 269 277 283 291 295 301 304 304 302 293 292 294 289 291 293 282 278 276 274 274 279 272 264 260 257 256 257 257 260 262 259 259 248 246 268
233 245 240 237 214 249 257 268 279 279 290 280 308 282 286 290 287 288 293 289 290 285 283 283 283 279 277 277 276 274 257 258 258 258 257 251 252 258 265 276 260 264 268
233 245 253 238 175 235 256 268 278 294 300 301 305 298 300 291 269 264 297 295 286 280 281 281 283 287 277 275 271 273 271 268 265 261 260 260 258 261 263 268 262 249 265
276 279 285 211 201 241 256 281 286 295 300 305 302 301 296 291 265 245 282 285 279 276 276 278 280 283 287 276 268 268 270 270 269 269 269 268 263 257 250 248 246 247 253
275 257 255 238 251 261 273 280 290 298 301 301 296 295 292 291 280 258 268 272 264 267 273 276 277 279 283 287 276 263 265 267 267 261 260 266 263 255 256 253 251 251 253
268 266 272 278 271 276 278 282 289 297 299 296 297 293 292 283 278 278 273 255 250 258 265 263 269 271 275 277 280 275 261 263 270 267 262 263 269 258 257 260 262 262 261
258 252 256 265 277 284 287 290 294 291 292 294 296 295 288 282 283 278 289 250 230 247 255 256 267 266 267 270 274 274 265 255 255 255 261 264 259 250 252 257 260 261 261
248 253 264 268 277 285 288 286 285 280 282 290 295 292 287 285 281 276 277 259 241 240 248 260 263 266 264 260 263 266 260 253 247 252 251 252 254 257 250 250 256 261 264
253 255 262 276 287 288 284 282 278 278 285 293 296 294 290 289 298 283 266 243 232 237 241 254 259 262 260 258 253 258 261 257 249 246 244 242 252 248 247 250 255 256 257
272 278 282 284 286 281 281 278 278 280 285 291 292 290 290 289 314 266 247 226 225 232 242 248 255 257 253 250 246 250 252 255 253 252 255 254 252 253 257 259 258 261 261
272 275 278 278 276 275 276 277 279 281 281 284 287 286 287 293 326 252 230 221 221 237 237 240 245 254 250 238 240 247 252 252 254 252 253 257 259 259 261 263 262 262 263
272 269 268 271 276 277 278 271 272 269 272 276 280 280 278 287 311 270 224 228 230 241 246 230 234 248 249 240 240 245 251 254 254 254 254 255 258 260 263 264 261 265 267
270 276 279 280 277 276 275 273 271 264 266 267 278 276 274 268 258 281 240 235 239 242 239 223 239 253 256 253 253 252 252 251 253 256 257 259 260 262 262 265 266 267 268
275 277 280 282 279 278 274 271 266 263 268 265 269 266 267 267 260 249 258 246 239 235 218 237 256 261 261 258 257 257 258 257 254 255 255 256 260 262 264 267 269 271 274
274 275 276 268 266 262 262 261 258 253 251 258 258 257 257 260 243 268 255 241 235 231 238 253 255 252 249 251 256 259 258 260 261 263 263 261 263 265 268 271 273 275 278
264 261 259 260 261 255 258 268 272 264 258 255 252 247 247 253 258 247 244 237 249 250 254 241 239 245 254 259 261 259 271 279 275 272 269 268 271 272 273 275 279 281 283
251 255 259 264 263 257 259 270 276 271 260 250 249 244 244 253 239 249 244 238 242 254 248 248 243 248 255 263 259 268 281 284 281 275 271 273 279 283 285 286 285 284 284
261 264 270 270 268 261 257 260 260 265 255 250 241 234 244 248 253 256 247 249 234 235 242 248 250 259 259 266 276 279 276 278 281 283 287 289 288 287 284 284 284 285 286
264 265 264 267 271 260 256 256 255 262 260 248 246 242 237 252 256 245 246 286 256 241 238 243 248 260 271 274 271 275 282 286 287 286 285 285 284 284 286 287 290 291 292
264 262 261 260 263 265 269 262 260 261 254 242 249 249 251 248 246 258 261 253 243 225 221 234 265 276 279 276 278 280 280 281 280 280 281 282 285 288 289 289 289 289 291
267 268 266 263 269 269 274 275 272 262 257 251 250 244 241 235 244 239 228 233 244 262 288 296 290 285 281 279 276 275 275 276 277 281 284 286 288 288 289 290 291 293 295
275 275 274 275 275 278 277 278 274 264 259 259 263 268 267 275 279 278 274 279 278 281 281 281 279 276 276 276 277 278 279 282 284 286 287 288 287 287 288 289 293 296 299
Height
5842 5840 5841 5843 5843 5841 5840 5839 5838 5837 5836 5836 5835 5834 5833 5833 5834 5834 5834 5833 5833 5833 5833 5831 5831 5830 5829 5830 5830 5832 5831 5833 5833 5835 5835 5836 5838 5839 5839 5840 5841 5842 5842
5838 5835 5835 5837 5839 5837 5836 5836 5834 5834 5833 5833 5832 5831 5830 5829 5829 5828 5827 5827 5827 5827 5827 5827 5828 5827 5826 5825 5825 5825 5825 5825 5827 5828 5828 5829 5829 5830 5832 5833 5834 5835 5835
5830 5830 5830 5831 5835 5832 5830 5830 5832 5830 5829 5829 5828 5827 5828 5828 5827 5826 5825 5824 5823 5822 5823 5822 5822 5822 5821 5821 5821 5822 5822 5821 5821 5821 5821 5822 5823 5825 5826 5826 5827 5826 5828
5821 5820 5821 5822 5827 5827 5828 5827 5829 5829 5828 5829 5829 5827 5826 5824 5823 5824 5823 5823 5821 5821 5820 5818 5816 5816 5816 5815 5815 5816 5816 5816 5817 5817 5818 5818 5818 5818 5819 5820 5818 5816 5819
5812 5814 5812 5813 5820 5823 5826 5825 5823 5824 5825 5826 5827 5826 5825 5823 5822 5820 5818 5818 5815 5815 5815 5814 5814 5811 5810 5811 5810 5810 5810 5811 5810 5810 5811 5812 5812 5812 5812 5812 5810 5811 5812
5808 5813 5809 5794 5806 5817 5819 5819 5820 5821 5822 5822 5820 5817 5818 5815 5814 5814 5815 5813 5812 5810 5809 5807 5808 5808 5805 5804 5805 5803 5802 5803 5804 5804 5805 5805 5805 5805 5805 5805 5807 5807 5809
5800 5801 5796 5796 5784 5806 5812 5811 5812 5813 5812 5812 5809 5810 5808 5804 5800 5803 5804 5805 5805 5804 5804 5802 5800 5801 5800 5798 5798 5799 5798 5798 5797 5798 5799 5800 5800 5800 5799 5799 5800 5802 5803
5793 5791 5782 5787 5787 5797 5802 5803 5800 5803 5803 5803 5799 5796 5797 5792 5789 5791 5793 5794 5796 5796 5796 5797 5795 5793 5794 5792 5791 5793 5793 5793 5793 5792 5793 5794 5793 5794 5794 5794 5795 5796 5798
5780 5782 5786 5783 5782 5792 5795 5791 5793 5792 5792 5793 5791 5788 5785 5785 5783 5784 5784 5783 5785 5787 5788 5788 5788 5788 5787 5786 5786 5785 5786 5787 5787 5785 5784 5785 5785 5786 5787 5790 5790 5791 5792
5770 5774 5776 5776 5782 5786 5784 5784 5786 5784 5783 5782 5780 5779 5777 5777 5777 5775 5773 5771 5777 5778 5779 5779 5780 5780 5780 5778 5778 5777 5777 5778 5779 5779 5779 5778 5779 5780 5781 5783 5784 5785 5786
5770 5772 5771 5774 5776 5776 5775 5774 5774 5774 5773 5770 5769 5768 5768 5763 5765 5762 5760 5761 5763 5768 5770 5770 5771 5772 5772 5771 5770 5769 5769 5770 5771 5772 5772 5772 5772 5772 5774 5776 5777 5777 5777
5763 5765 5767 5768 5769 5769 5767 5765 5766 5765 5763 5762 5759 5758 5754 5752 5752 5749 5750 5752 5757 5757 5760 5763 5764 5764 5764 5764 5763 5763 5763 5763 5763 5765 5765 5765 5765 5766 5766 5766 5767 5768 5769
5757 5758 5759 5758 5759 5758 5757 5756 5755 5752 5751 5751 5747 5745 5742 5740 5736 5729 5733 5735 5743 5748 5751 5753 5754 5754 5755 5755 5755 5756 5757 5757 5757 5758 5759 5758 5761 5761 5759 5760 5760 5761 5760
5745 5747 5747 5748 5748 5747 5746 5745 5743 5741 5741 5739 5737 5735 5733 5728 5720 5715 5719 5727 5731 5738 5743 5745 5746 5746 5746 5746 5747 5748 5748 5749 5750 5751 5753 5753 5752 5754 5754 5755 5754 5754 5754
5735 5735 5736 5736 5736 5736 5735 5734 5732 5731 5729 5728 5728 5726 5721 5717 5710 5711 5714 5720 5723 5729 5734 5737 5738 5739 5738 5737 5740 5741 5741 5742 5743 5742 5743 5745 5746 5745 5745 5746 5745 5745 5745
5722 5724 5724 5722 5723 5723 5723 5723 5722 5722 5721 5719 5718 5718 5713 5708 5705 5703 5708 5714 5717 5719 5723 5724 5728 5730 5732 5731 5732 5733 5734 5735 5735 5734 5734 5735 5735 5736 5736 5736 5735 5735 5735
5715 5712 5708 5709 5709 5711 5711 5710 5710 5711 5710 5709 5709 5708 5704 5704 5702 5703 5704 5708 5710 5712 5714 5716 5720 5722 5724 5723 5724 5725 5725 5726 5726 5727 5727 5727 5727 5726 5726 5726 5725 5723 5723
5703 5702 5700 5700 5698 5697 5698 5698 5696 5697 5699 5699 5699 5700 5695 5699 5701 5701 5700 5701 5700 5703 5705 5709 5712 5712 5712 5713 5714 5714 5715 5716 5716 5717 5717 5717 5718 5717 5717 5717 5716 5715 5714
5693 5692 5691 5691 5688 5689 5688 5687 5688 5688 5688 5689 5692 5690 5690 5691 5688 5692 5695 5694 5695 5697 5699 5701 5703 5703 5703 5704 5705 5706 5706 5706 5707 5707 5706 5705 5704 5705 5706 5706 5705 5704 5703
5683 5684 5682 5682 5681 5679 5679 5678 5679 5677 5676 5677 5680 5684 5684 5685 5685 5685 5685 5686 5690 5690 5690 5691 5692 5693 5695 5696 5697 5698 5698 5698 5697 5696 5696 5696 5697 5696 5696 5696 5695 5692 5690
5674 5673 5672 5672 5671 5670 5668 5667 5665 5665 5668 5669 5670 5673 5675 5676 5679 5679 5676 5670 5677 5677 5681 5683 5683 5684 5686 5689 5688 5688 5689 5688 5688 5688 5687 5687 5687 5687 5686 5685 5683 5681 5679
5664 5663 5664 5662 5662 5662 5660 5660 5661 5662 5662 5663 5663 5664 5666 5666 5668 5670 5671 5669 5669 5669 5672 5675 5675 5677 5678 5679 5679 5680 5681 5681 5681 5680 5681 5679 5678 5678 5676 5674 5672 5670 5668
5658 5657 5658 5658 5656 5657 5657 5654 5656 5656 5657 5657 5657 5658 5659 5659 5660 5662 5661 5661 5663 5664 5665 5667 5670 5671 5671 5672 5672 5673 5673 5672 5672 5671 5670 5668 5666 5665 5663 5661 5659 5657 5655
5652 5651 5651 5652 5652 5652 5649 5649 5649 5650 5650 5652 5652 5653 5654 5655 5656 5657 5657 5658 5659 5659 5660 5661 5662 5663 5665 5666 5665 5665 5664 5663 5662 5661 5660 5658 5656 5654 5652 5649 5647 5645 5641
5645 5644 5644 5644 5644 5644 5644 5644 5643 5645 5646 5646 5646 5647 5649 5649 5650 5651 5652 5653 5653 5653 5653 5655 5656 5657 5657 5657 5657 5656 5655 5654 5653 5651 5650 5648 5645 5643 5640 5636 5633 5630 5629
5637 5637 5637 5636 5637 5638 5638 5638 5638 5637 5640 5642 5642 5642 5642 5643 5642 5644 5646 5647 5648 5649 5648 5647 5648 5648 5648 5648 5647 5647 5646 5645 5643 5641 5638 5636 5633 5631 5628 5626 5622 5619 5617